Change the Weather History Date:

Thursday, January 30, 2014

  Actual Average Record
Temperature  
Mean Temperature 65 °F 58 °F  
Max Temperature 77 °F 69 °F 82 °F (1935)
Min Temperature 52 °F 47 °F 28 °F (1970)
Degree Days  
Heating Degree Days 0 7  
Month to date heating degree days 150 262  
Since 1 July heating degree days 467 663  
Cooling Degree Days 0 0  
Month to date cooling degree days 4 0  
Year to date cooling degree days 4 0  
Growing Degree Days 14 (Base 50)    
Moisture  
Dew Point 26 °F    
Average Humidity 27    
Maximum Humidity 41    
Minimum Humidity 13    
Precipitation  
Precipitation 0.00 in 0.03 in 1.19 in (1951)
Month to date precipitation 0.00 0.88  
Year to date precipitation 0.00 0.88  
Snow  
Snow 0.00 in - - ()
Month to date snowfall 0.0  
Year to date snowfall 0.0  
Since 1 July snowfall 0.0  
Snow Depth 0.00 in    
Sea Level Pressure  
Sea Level Pressure 29.81 in    
Wind  
Wind Speed 6 mph (East)    
Max Wind Speed 12 mph    
Max Gust Speed 13 mph    
Visibility 10 miles    
Events      
T = Trace of Precipitation, MM = Missing Value Source: NWS Daily Summary

Daily Weather History Graph

Daily Weather History Graph

Search for Another Location

Airport or City:

Trip Planner

Search our weather history database for the weather conditions in past years. The results will help you decide how hot, cold, wet, or windy it might be!

Date:

Astronomy

Jan. 30, 2014 Rise Set
Actual Time 7:25 AM MST 5:57 PM MST
Civil Twilight 6:59 AM MST 6:23 PM MST
Nautical Twilight 6:29 AM MST 6:53 PM MST
Astronomical Twilight 6:00 AM MST 7:23 PM MST
Moon 6:56 AM MST (1/30) 6:10 PM MST (1/30)
Length of Visible Light 11h 24m
Length of Day
10h 32m
Waning Crescent, 0% of the Moon is Illuminated
Jan 30
Waning Crescent
Jan 30
New
Feb 6
First Quarter
Feb 14
Full
Feb 22
Last Quarter

Hourly Weather History & Observations

Time (MST) Temp. Dew Point Humidity Pressure Visibility Wind Dir Wind Speed Gust Speed Precip Events Conditions
12:51 AM 55.9 °F 28.0 °F 34% 29.90 in 10.0 mi East 5.8 mph - N/A   Scattered Clouds
1:51 AM 55.9 °F 28.9 °F 36% 29.88 in 10.0 mi East 9.2 mph - N/A   Scattered Clouds
2:51 AM 55.0 °F 28.0 °F 35% 29.88 in 10.0 mi East 11.5 mph - N/A   Scattered Clouds
3:51 AM 54.0 °F 28.0 °F 37% 29.87 in 10.0 mi East 9.2 mph - N/A   Partly Cloudy
4:51 AM 52.0 °F 27.0 °F 38% 29.86 in 10.0 mi East 6.9 mph - N/A   Scattered Clouds
5:51 AM 52.0 °F 28.9 °F 41% 29.87 in 10.0 mi East 9.2 mph - N/A   Scattered Clouds
6:51 AM 53.1 °F 25.0 °F 34% 29.87 in 10.0 mi East 10.4 mph - N/A   Mostly Cloudy
7:51 AM 52.0 °F 28.0 °F 40% 29.88 in 10.0 mi East 6.9 mph - N/A   Mostly Cloudy
8:51 AM 54.0 °F 26.1 °F 34% 29.89 in 10.0 mi East 4.6 mph - N/A   Mostly Cloudy
9:51 AM 60.1 °F 23.0 °F 24% 29.90 in 10.0 mi East 9.2 mph - N/A   Mostly Cloudy
10:51 AM 64.0 °F 24.1 °F 22% 29.90 in 10.0 mi East 6.9 mph - N/A   Mostly Cloudy
11:51 AM 68.0 °F 23.0 °F 18% 29.87 in 10.0 mi ESE 5.8 mph - N/A   Mostly Cloudy
12:51 PM 71.1 °F 24.1 °F 17% 29.83 in 10.0 mi Variable 4.6 mph - N/A   Mostly Cloudy
1:51 PM 75.9 °F 23.0 °F 14% 29.78 in 10.0 mi SSE 4.6 mph - N/A   Mostly Cloudy
2:51 PM 75.9 °F 21.9 °F 13% 29.76 in 10.0 mi Calm Calm - N/A   Mostly Cloudy
3:51 PM 75.9 °F 23.0 °F 14% 29.75 in 10.0 mi Calm Calm - N/A   Mostly Cloudy
4:51 PM 75.9 °F 24.1 °F 15% 29.74 in 10.0 mi Calm Calm - N/A   Mostly Cloudy
5:51 PM 75.0 °F 24.1 °F 15% 29.73 in 10.0 mi North 4.6 mph - N/A   Mostly Cloudy
6:51 PM 71.1 °F 26.1 °F 19% 29.71 in 10.0 mi ESE 6.9 mph - N/A   Mostly Cloudy
7:51 PM 70.0 °F 28.0 °F 21% 29.73 in 10.0 mi Calm Calm - N/A   Mostly Cloudy
8:51 PM 68.0 °F 30.0 °F 24% 29.73 in 10.0 mi Calm Calm - N/A   Mostly Cloudy
9:51 PM 66.0 °F 30.0 °F 26% 29.73 in 10.0 mi East 5.8 mph - N/A   Overcast
10:51 PM 64.9 °F 30.9 °F 28% 29.72 in 10.0 mi ESE 4.6 mph - N/A   Overcast
11:51 PM 64.0 °F 32.0 °F 30% 29.72 in 10.0 mi East 6.9 mph - N/A   Overcast